Regional Weather Roundup
Issued by NWS

Home | Current Version | Previous Version | Graphics & Text | Print | Product List | Glossary On
Versions: 1 2 3 4 5 6 7 8 9 10 11 12 13 14 15 16 17 18 19 20 21 22 23 24 25 26 27 28 29 30 31 32 33 34 35 36 37 38 39 40 41 42 43 44 45 46 47 48 49 50
000
ASUS45 KABQ 231601
RWRNM
NEW MEXICO REGIONAL WEATHER ROUNDUP
NATIONAL WEATHER SERVICE ALBUQUERQUE NM
1000 AM MDT TUE MAY 23 2017

NOTE: "FAIR" MEANS FEW OR NO CLOUDS BELOW 12,000 FEET AGL WITH NO
       SIGNIFICANT WEATHER OR OBSTRUCTIONS TO VISION.

      THIS PRODUCT IS RELEASED AS TWO VERSIONS.  ONE VERSION NEAR
      THE TOP OF THE HOUR CONTAINING PRELIMINARY DATA FROM ALBUQUERQUE
      AND OTHER STATIONS.  A FINAL VERSION WITH ADDITIONAL DATA IS
      ISSUED ABOUT 10 MINUTES AFTER THE HOUR.

NMZ501-503-504-510>518-231700-
NORTHWEST PLATEAU/NORTHCENTRAL MOUNTAINS

CITY           SKY/WX    TMP DP  RH WIND       PRES   REMARKS
FARMINGTON     FAIR      64  25  22 W20G29    30.15S
LOS ALAMOS     CLOUDY    48  39  70 E7        30.26R
SANTA FE       FAIR      52  38  58 S16       30.22S
TAOS           FAIR      54  23  30 N18G30    30.24F
ANGEL FIRE     FAIR      43  32  65 NE8       30.26F

$$
NMZ402-403-502-505>509-231700-
WESTCENTRAL MOUNTAINS/SOUTHWEST MOUNTAINS

CITY           SKY/WX    TMP DP  RH WIND       PRES   REMARKS
GALLUP         FAIR      65  28  24 N13G21    30.24S
GRANTS         FAIR      67  22  18 N23G32    30.21S
SILVER CITY    FAIR      75  24  14 NW15G21   30.14F

$$
NMZ407-409-411-412-231700-
SOUTHERN DESERTS

CITY           SKY/WX    TMP DP  RH WIND       PRES   REMARKS
DEMING         FAIR      77  19  11 VRB5      30.08F
LAS CRUCES     FAIR      78  23  12 NE7       30.10R
HOLLOMAN AFB   FAIR      72  39  29 N7        30.10F
ALAMOGORDO     FAIR      70  36  28 SE6       30.09S
T OR C         FAIR      70  36  28 NE12      30.12S

$$
NMZ519>523-231700-
CENTRAL VALLEYS/CENTRAL HIGHLANDS

CITY           SKY/WX    TMP DP  RH WIND       PRES   REMARKS
ALBUQUERQUE    FAIR      62  40  44 E12G21    30.17R
DOUBLE EAGLE   MOSUNNY   61  41  48 N6        30.19S
MORIARTY ARPT  CLOUDY    50  36  59 E16       30.26R
CLINES CORNERS CLOUDY    37  32  82 NE18G29   30.27S WCI  27
BELEN          FAIR      64  37  37 SE16      30.16S
SOCORRO        FAIR      65  42  41 E7        30.14F

$$
NMZ524>526-539-540-231700-
SOUTHCENTRAL MOUNTAINS

CITY           SKY/WX    TMP DP  RH WIND       PRES   REMARKS
RUIDOSO        NOT AVBL

$$
NMZ527>531-231700-
NORTHEAST HIGHLANDS/NORTHEAST PLAINS

CITY           SKY/WX    TMP DP  RH WIND       PRES   REMARKS
LAS VEGAS      FAIR      48  31  51 N15G22    30.24F
RATON          FAIR      51  33  50 N13G23    30.21F
CLAYTON        FAIR      54  37  52 N23G30    30.18R

$$
NMZ532>537-231700-
EASTCENTRAL PLAINS

CITY           SKY/WX    TMP DP  RH WIND       PRES   REMARKS
SANTA ROSA       N/A    N/A N/A N/A MISG        N/A
TUCUMCARI      PTSUNNY   55  44  66 N9        30.18S
CANNON AFB     HVY RAIN  44  44 100 N13       30.21R
CLOVIS AIRPORT CLOUDY    46  39  76 N15       30.19R

$$
NMZ028-029-538-231700-
SOUTHEAST PLAINS

CITY           SKY/WX    TMP DP  RH WIND       PRES   REMARKS
ROSWELL        PTSUNNY   60  39  45 NE16      30.20R
ARTESIA        CLOUDY    59  43  55 N20       30.20R
CARLSBAD       CLOUDY    60  47  61 N22       30.17R
HOBBS          PTSUNNY   57  41  54 N23G30    30.17R


$$




USA.gov is the U.S. government's official web portal to all federal, state and local government web resources and services.